Location: Oshawa
(43.9000°N, 78.8670°W)
Time: 21:31:27
(UTC-04:00)

Cosmos 1805 Rocket - Visible Passes

Search period start: 29 September 2016 00:00
Search period end: 09 October 2016 00:00
Orbit: 607 x 629 km, 82.5° (Epoch: 29 September)

Date Brightness Start Highest point End Pass type
(mag) Time Alt. Az. Time Alt. Az. Time Alt. Az.
29 Sep 4.8 20:41:05 10° NNE 20:43:50 25° NE 20:43:50 25° NE visible
29 Sep 6.0 22:19:02 10° NNW 22:20:59 20° NW 22:20:59 20° NW visible
30 Sep 4.2 20:57:52 10° N 21:01:08 41° NNE 21:01:08 41° NNE visible
30 Sep 6.5 22:37:07 10° NW 22:38:18 13° WNW 22:38:18 13° WNW visible
01 Oct 4.0 21:14:55 10° N 21:18:29 57° NNW 21:18:29 57° NNW visible
02 Oct 5.1 19:55:20 10° NNE 19:58:18 17° ENE 19:58:44 17° ENE visible
02 Oct 4.6 21:32:11 10° NNW 21:35:54 43° WNW 21:35:54 43° WNW visible
03 Oct 4.4 20:11:45 10° NNE 20:15:39 29° ENE 20:16:13 29° E visible
03 Oct 5.6 21:49:45 10° NNW 21:53:22 25° W 21:53:23 25° W visible
04 Oct 3.6 20:28:33 10° N 20:32:54 53° ENE 20:33:47 45° ESE visible
04 Oct 6.3 22:07:54 10° NW 22:10:15 14° W 22:10:57 14° W visible
05 Oct 3.5 20:45:36 10° N 20:50:02 82° W 20:51:27 43° S visible
06 Oct 5.0 19:25:58 10° NNE 19:28:59 18° ENE 19:31:58 10° ESE visible
06 Oct 4.6 21:02:53 10° NNW 21:07:05 44° W 21:09:19 24° SSW visible
07 Oct 4.3 19:42:25 10° NNE 19:46:20 30° ENE 19:50:11 10° SE visible
07 Oct 5.7 21:20:29 10° NW 21:24:02 24° W 21:27:24 11° SW visible
08 Oct 3.6 19:59:14 10° N 20:03:34 55° ENE 20:07:51 10° SSE visible
08 Oct 6.6 21:38:42 10° NW 21:40:54 14° W 21:43:04 10° WSW visible
